JST764 YBAS-YSSY

Flight info

Callsign JST764
Flight time N/A
Altitude 37000
Route DCT AS A576 APOMA Y52 VELGI Y105 TARAL Y59 RIVET
Aircraft A20N/M-SDE2E3FGHIJ1RWXY/LB1

Departure

Time 2026-04-16 03:00
Airport Alice Springs Airport (YBAS)

Arrival

Time N/A
Airport Sydney Kingsford Smith International Airport (YSSY)
Time Latitude Longitude Altitude Speed Heading
2026-04-16 02:56 -23.80225 133.90027 1807 ft 0 kts 75°
2026-04-16 02:57 -23.80231 133.90031 1807 ft 1 kts 169°
2026-04-16 02:57 -23.80257 133.90027 1807 ft 6 kts 192°
2026-04-16 02:58 -23.80330 133.89995 1805 ft 16 kts 206°
2026-04-16 02:58 -23.80394 133.89890 1802 ft 19 kts 295°
2026-04-16 02:58 -23.80328 133.89761 1802 ft 19 kts 300°
2026-04-16 02:58 -23.80254 133.89629 1802 ft 21 kts 302°
2026-04-16 02:59 -23.80180 133.89485 1804 ft 20 kts 293°
2026-04-16 02:59 -23.80153 133.89360 1806 ft 11 kts 319°
2026-04-16 02:59 -23.80125 133.89388 1806 ft 8 kts 118°
2026-04-16 02:59 -23.80166 133.89458 1804 ft 19 kts 118°
2026-04-16 03:00 -23.80361 133.89824 1802 ft 89 kts 120°
2026-04-16 03:00 -23.80785 133.90604 1796 ft 146 kts 121°
2026-04-16 03:00 -23.81341 133.91655 2035 ft 169 kts 119°
2026-04-16 03:00 -23.81985 133.92766 2533 ft 179 kts 130°
2026-04-16 03:01 -23.83024 133.93515 3139 ft 184 kts 163°
2026-04-16 03:01 -23.84265 133.93697 3701 ft 183 kts 172°
2026-04-16 03:01 -23.85543 133.93921 4135 ft 189 kts 167°
2026-04-16 03:01 -23.86846 133.94341 4478 ft 201 kts 150°
2026-04-16 03:02 -23.87917 133.95372 4855 ft 211 kts 127°
2026-04-16 03:02 -23.88807 133.96704 5170 ft 230 kts 124°
2026-04-16 03:02 -23.89769 133.98195 5554 ft 248 kts 125°
2026-04-16 03:02 -23.90834 133.99776 5970 ft 266 kts 126°
2026-04-16 03:03 -23.91980 134.01401 6502 ft 279 kts 127°
2026-04-16 03:03 -23.93193 134.03076 7235 ft 283 kts 128°
2026-04-16 03:03 -23.94440 134.04771 7977 ft 287 kts 128°
2026-04-16 03:03 -23.95688 134.06453 8689 ft 291 kts 128°
2026-04-16 03:04 -23.96977 134.08182 9375 ft 296 kts 129°
2026-04-16 03:04 -23.98287 134.09935 10055 ft 300 kts 129°
2026-04-16 03:04 -23.99609 134.11700 10565 ft 310 kts 129°
2026-04-16 03:04 -24.01018 134.13580 10888 ft 327 kts 129°
2026-04-16 03:05 -24.02492 134.15547 11328 ft 338 kts 129°
2026-04-16 03:05 -24.03996 134.17552 11981 ft 342 kts 129°
2026-04-16 03:05 -24.05490 134.19547 12620 ft 345 kts 129°
2026-04-16 03:05 -24.07021 134.21591 13239 ft 349 kts 129°
2026-04-16 03:06 -24.08570 134.23660 13822 ft 353 kts 129°
2026-04-16 03:06 -24.10118 134.25729 14376 ft 358 kts 129°
2026-04-16 03:06 -24.13334 134.30032 15423 ft 369 kts 129°
2026-04-16 03:07 -24.14952 134.32196 15918 ft 374 kts 129°
2026-04-16 03:07 -24.16619 134.34428 16429 ft 379 kts 129°
2026-04-16 03:07 -24.18304 134.36685 16926 ft 383 kts 129°
2026-04-16 03:07 -24.19984 134.38936 17397 ft 388 kts 129°
2026-04-16 03:08 -24.21707 134.41249 17872 ft 393 kts 129°
2026-04-16 03:08 -24.23451 134.43588 18359 ft 398 kts 129°
2026-04-16 03:08 -24.25188 134.45920 18859 ft 401 kts 129°
2026-04-16 03:08 -24.26966 134.48308 19344 ft 406 kts 129°
2026-04-16 03:09 -24.28764 134.50723 19821 ft 410 kts 129°
2026-04-16 03:09 -24.30579 134.53163 20317 ft 414 kts 130°
2026-04-16 03:09 -24.32387 134.55594 20784 ft 418 kts 129°
2026-04-16 03:09 -24.34240 134.58086 21250 ft 423 kts 130°
2026-04-16 03:10 -24.36110 134.60605 21735 ft 426 kts 130°
2026-04-16 03:10 -24.37970 134.63110 22180 ft 431 kts 130°
2026-04-16 03:10 -24.39878 134.65678 22638 ft 435 kts 129°
2026-04-16 03:10 -24.41798 134.68268 23089 ft 438 kts 130°
2026-04-16 03:11 -24.43717 134.70856 23502 ft 442 kts 130°
2026-04-16 03:11 -24.45678 134.73503 23919 ft 445 kts 130°
2026-04-16 03:11 -24.47616 134.76120 24298 ft 449 kts 130°
2026-04-16 03:11 -24.49599 134.78796 24672 ft 453 kts 130°
2026-04-16 03:12 -24.51596 134.81497 25028 ft 456 kts 130°
2026-04-16 03:12 -24.53580 134.84181 25392 ft 460 kts 130°
2026-04-16 03:12 -24.55609 134.86928 25745 ft 463 kts 130°
2026-04-16 03:12 -24.57653 134.89696 26065 ft 467 kts 130°
2026-04-16 03:13 -24.59685 134.92450 26394 ft 471 kts 130°
2026-04-16 03:13 -24.61758 134.95259 26722 ft 474 kts 130°
2026-04-16 03:13 -24.63846 134.98091 27043 ft 477 kts 130°
2026-04-16 03:13 -24.65919 135.00903 27347 ft 480 kts 130°
2026-04-16 03:14 -24.68036 135.03778 27646 ft 484 kts 130°
2026-04-16 03:14 -24.70162 135.06671 27949 ft 487 kts 130°
2026-04-16 03:14 -24.72303 135.09581 28237 ft 490 kts 130°
2026-04-16 03:14 -24.74426 135.12468 28523 ft 493 kts 130°
2026-04-16 03:15 -24.76592 135.15418 28789 ft 496 kts 130°
2026-04-16 03:15 -24.78769 135.18387 29083 ft 499 kts 130°
2026-04-16 03:15 -24.80928 135.21329 29364 ft 501 kts 130°
2026-04-16 03:15 -24.83125 135.24326 29668 ft 503 kts 130°
2026-04-16 03:16 -24.85328 135.27336 29970 ft 505 kts 130°
2026-04-16 03:16 -24.87538 135.30357 30257 ft 507 kts 130°
2026-04-16 03:16 -24.89727 135.33345 30541 ft 508 kts 130°
2026-04-16 03:16 -24.91951 135.36389 30827 ft 510 kts 130°
2026-04-16 03:17 -24.94184 135.39444 31088 ft 512 kts 130°
2026-04-16 03:17 -24.96396 135.42470 31329 ft 514 kts 130°
2026-04-16 03:17 -24.98642 135.45550 31652 ft 514 kts 130°
2026-04-16 03:17 -25.00879 135.48621 32062 ft 511 kts 131°
2026-04-16 03:18 -25.03105 135.51680 32434 ft 510 kts 131°
2026-04-16 03:18 -25.05297 135.54686 32796 ft 509 kts 131°
2026-04-16 03:18 -25.07515 135.57733 33169 ft 508 kts 131°
2026-04-16 03:18 -25.09735 135.60776 33497 ft 509 kts 131°
2026-04-16 03:19 -25.11923 135.63786 33777 ft 509 kts 131°
2026-04-16 03:19 -25.14141 135.66841 34085 ft 509 kts 131°
2026-04-16 03:19 -25.16363 135.69899 34367 ft 509 kts 130°
2026-04-16 03:19 -25.18549 135.72910 34628 ft 509 kts 131°
2026-04-16 03:20 -25.20757 135.75955 34856 ft 509 kts 131°
2026-04-16 03:20 -25.22985 135.79028 35080 ft 510 kts 130°
2026-04-16 03:20 -25.25174 135.82056 35340 ft 509 kts 131°
2026-04-16 03:20 -25.27405 135.85136 35568 ft 509 kts 130°
2026-04-16 03:21 -25.29621 135.88203 35773 ft 509 kts 130°
2026-04-16 03:21 -25.31811 135.91232 35964 ft 510 kts 131°
2026-04-16 03:21 -25.34028 135.94301 36155 ft 510 kts 130°
2026-04-16 03:21 -25.36246 135.97377 36330 ft 511 kts 131°
2026-04-16 03:22 -25.38437 136.00413 36495 ft 511 kts 131°
2026-04-16 03:22 -25.40665 136.03502 36651 ft 512 kts 130°
2026-04-16 03:22 -25.42899 136.06602 36820 ft 512 kts 130°
2026-04-16 03:22 -25.45091 136.09645 37015 ft 512 kts 130°
2026-04-16 03:23 -25.47316 136.12743 37053 ft 514 kts 130°
2026-04-16 03:23 -25.51749 136.18913 37058 ft 514 kts 131°
2026-04-16 03:24 -25.56214 136.25128 37059 ft 515 kts 130°
2026-04-16 03:24 -25.60647 136.31313 37057 ft 515 kts 130°
2026-04-16 03:25 -25.65094 136.37530 37053 ft 515 kts 130°
2026-04-16 03:25 -25.69551 136.43765 37056 ft 516 kts 130°
2026-04-16 03:26 -25.73432 136.49202 37054 ft 516 kts 131°
2026-04-16 03:26 -25.77889 136.55452 37051 ft 516 kts 131°
2026-04-16 03:27 -25.82317 136.61679 37051 ft 517 kts 131°
2026-04-16 03:27 -25.86776 136.67955 37049 ft 516 kts 130°
2026-04-16 03:28 -25.91200 136.74175 37052 ft 518 kts 131°
2026-04-16 03:28 -25.95713 136.80456 37055 ft 518 kts 131°
2026-04-16 03:29 -26.00195 136.86699 37051 ft 518 kts 131°
2026-04-16 03:29 -26.04664 136.92938 37051 ft 519 kts 131°
2026-04-16 03:30 -26.09156 136.99234 37053 ft 519 kts 131°
2026-04-16 03:30 -26.13621 137.05495 37050 ft 518 kts 131°
2026-04-16 03:31 -26.18102 137.11787 37053 ft 519 kts 131°
2026-04-16 03:31 -26.22574 137.18079 37046 ft 518 kts 130°
2026-04-16 03:32 -26.27059 137.24394 37051 ft 518 kts 131°
2026-04-16 03:34 -26.44910 137.49617 37043 ft 519 kts 131°
2026-04-16 03:34 -26.49365 137.55936 37045 ft 520 kts 131°
2026-04-16 03:35 -26.53832 137.62282 37043 ft 520 kts 131°
2026-04-16 03:35 -26.58307 137.68645 37045 ft 519 kts 130°
2026-04-16 03:36 -26.62741 137.74957 37041 ft 519 kts 130°
2026-04-16 03:36 -26.67198 137.81316 37041 ft 520 kts 130°
2026-04-16 03:37 -26.71637 137.87657 37041 ft 520 kts 130°
2026-04-16 03:37 -26.76102 137.94045 37044 ft 520 kts 130°
2026-04-16 03:38 -26.80543 138.00409 37040 ft 521 kts 130°